| time (UTC) | temp F | wind direction | speed MPH | gust MPH | rain 1hr in | rain 24hr in | rain mn in | humidity % | barometer mb |
| 20260504060138 | 59 | 239 | 2.0 | 4.0 | 0.00 | 0.00 | 0.00 | 68 | 1003.2 |
| 20260504050639 | 59 | 229 | 2.0 | 3.0 | 0.00 | 0.00 | 0.00 | 68 | 1003.7 |
| 20260504050149 | 59 | 229 | 1.0 | 2.0 | 0.00 | 0.00 | 0.00 | 68 | 1003.8 |
| 20260504045637 | 59 | 229 | 2.0 | 3.0 | 0.00 | 0.00 | 0.00 | 67 | 1003.8 |
| 20260504045149 | 59 | 229 | 2.0 | 3.0 | 0.00 | 0.00 | 0.00 | 67 | 1003.8 |
| 20260504044658 | 60 | 229 | 2.0 | 3.0 | 0.00 | 0.00 | 0.00 | 66 | 1003.9 |
| 20260504044147 | 60 | 229 | 1.0 | 5.0 | 0.00 | 0.00 | 0.00 | 66 | 1003.9 |
| 20260504043653 | 60 | 229 | 3.0 | 5.0 | 0.00 | 0.00 | 0.00 | 66 | 1003.9 |
| 20260504043139 | 60 | 231 | 3.0 | 4.0 | 0.00 | 0.00 | 0.00 | 66 | 1004.1 |
| 20260504042645 | 60 | 238 | 2.0 | 5.0 | 0.00 | 0.00 | 0.00 | 65 | 1004.1 |
| 20260504042153 | 61 | 238 | 3.0 | 5.0 | 0.00 | 0.00 | 0.00 | 65 | 1004.1 |
| 20260504041638 | 61 | 228 | 4.0 | 5.0 | 0.00 | 0.00 | 0.00 | 65 | 1004.0 |
| 20260504041145 | 61 | 225 | 4.0 | 6.0 | 0.00 | 0.00 | 0.00 | 65 | 1004.0 |
| 20260504040639 | 61 | 234 | 4.0 | 6.0 | 0.00 | 0.00 | 0.00 | 65 | 1004.0 |
| 20260504040137 | 61 | 234 | 4.0 | 5.0 | 0.00 | 0.00 | 0.00 | 65 | 1004.2 |
| 20260504035711 | 61 | 236 | 3.0 | 5.0 | 0.00 | 0.00 | 0.00 | 65 | 1004.2 |
| 20260504035143 | 61 | 234 | 3.0 | 5.0 | 0.00 | 0.00 | 0.00 | 64 | 1004.2 |
| 20260504034648 | 61 | 234 | 3.0 | 7.0 | 0.00 | 0.00 | 0.00 | 65 | 1004.2 |
| 20260504034145 | 61 | 247 | 3.0 | 7.0 | 0.00 | 0.00 | 0.00 | 65 | 1004.2 |
| 20260504033649 | 61 | 227 | 2.0 | 5.0 | 0.00 | 0.00 | 0.00 | 65 | 1004.2 |
| 20260504033214 | 61 | 226 | 3.0 | 5.0 | 0.00 | 0.00 | 0.00 | 65 | 1004.2 |
| 20260504032700 | 61 | 225 | 3.0 | 5.0 | 0.00 | 0.00 | 0.00 | 65 | 1004.2 |
| 20260504032148 | 61 | 232 | 3.0 | 6.0 | 0.00 | 0.00 | 0.00 | 65 | 1004.2 |
| 20260504031639 | 61 | 225 | 3.0 | 6.0 | 0.00 | 0.00 | 0.00 | 64 | 1004.2 |
| 20260504031208 | 62 | 221 | 3.0 | 6.0 | 0.00 | 0.00 | 0.00 | 64 | 1004.2 |
| 20260504030640 | 62 | 220 | 3.0 | 6.0 | 0.00 | 0.00 | 0.00 | 64 | 1004.2 |
| 20260504030207 | 62 | 225 | 4.0 | 6.0 | 0.00 | 0.00 | 0.00 | 64 | 1004.2 |
| 20260504025637 | 62 | 234 | 4.0 | 5.0 | 0.00 | 0.00 | 0.00 | 64 | 1004.2 |
| 20260504025151 | 62 | 240 | 4.0 | 7.0 | 0.00 | 0.00 | 0.00 | 64 | 1004.2 |
| 20260504024636 | 62 | 225 | 4.0 | 7.0 | 0.00 | 0.00 | 0.00 | 64 | 1004.2 |
| 20260504024146 | 62 | 227 | 4.0 | 7.0 | 0.00 | 0.00 | 0.00 | 65 | 1004.2 |
| 20260504023638 | 61 | 240 | 4.0 | 6.0 | 0.00 | 0.00 | 0.00 | 65 | 1004.2 |
| 20260504023148 | 61 | 227 | 4.0 | 6.0 | 0.00 | 0.00 | 0.00 | 65 | 1004.2 |
| 20260504022637 | 62 | 228 | 4.0 | 5.0 | 0.00 | 0.00 | 0.00 | 64 | 1004.2 |
| 20260504022209 | 62 | 226 | 3.0 | 5.0 | 0.00 | 0.00 | 0.00 | 64 | 1004.2 |
| 20260504021635 | 62 | 229 | 4.0 | 5.0 | 0.00 | 0.00 | 0.00 | 63 | 1004.2 |
| 20260504021147 | 62 | 221 | 3.0 | 5.0 | 0.00 | 0.00 | 0.00 | 63 | 1004.2 |
| 20260504020635 | 62 | 227 | 3.0 | 5.0 | 0.00 | 0.00 | 0.00 | 63 | 1004.2 |
| 20260504020148 | 62 | 227 | 2.0 | 4.0 | 0.00 | 0.00 | 0.00 | 62 | 1004.2 |
| 20260504015639 | 63 | 227 | 2.0 | 5.0 | 0.00 | 0.00 | 0.00 | 62 | 1004.2 |
| 20260504015150 | 63 | 227 | 3.0 | 5.0 | 0.00 | 0.00 | 0.00 | 62 | 1004.2 |
| 20260504014640 | 63 | 217 | 3.0 | 5.0 | 0.00 | 0.00 | 0.00 | 61 | 1004.2 |
| 20260504014149 | 63 | 225 | 3.0 | 5.0 | 0.00 | 0.00 | 0.00 | 61 | 1004.2 |
| 20260504013658 | 63 | 236 | 3.0 | 6.0 | 0.00 | 0.00 | 0.00 | 61 | 1004.2 |
| 20260504013145 | 64 | 232 | 4.0 | 6.0 | 0.00 | 0.00 | 0.00 | 61 | 1004.1 |
| 20260504012637 | 64 | 227 | 3.0 | 5.0 | 0.00 | 0.00 | 0.00 | 60 | 1004.1 |
| 20260504012149 | 64 | 232 | 3.0 | 5.0 | 0.00 | 0.00 | 0.00 | 60 | 1004.1 |
| 20260504011639 | 65 | 220 | 4.0 | 6.0 | 0.00 | 0.00 | 0.00 | 59 | 1003.8 |
| 20260504011147 | 65 | 225 | 3.0 | 6.0 | 0.00 | 0.00 | 0.00 | 58 | 1003.8 |
| 20260504010713 | 65 | 231 | 4.0 | 6.0 | 0.00 | 0.00 | 0.00 | 58 | 1003.8 |
| 20260504010206 | 65 | 237 | 4.0 | 6.0 | 0.00 | 0.00 | 0.00 | 58 | 1003.9 |
| 20260504005715 | 66 | 245 | 4.0 | 9.0 | 0.00 | 0.00 | 0.00 | 57 | 1003.9 |
| 20260504005159 | 66 | 232 | 5.0 | 9.0 | 0.00 | 0.00 | 0.00 | 57 | 1003.9 |
| 20260504004704 | 66 | 251 | 5.0 | 9.0 | 0.00 | 0.00 | 0.00 | 56 | 1003.7 |
| 20260504004214 | 67 | 234 | 4.0 | 11.0 | 0.00 | 0.00 | 0.00 | 56 | 1003.8 |
| 20260504003642 | 67 | 234 | 4.0 | 12.0 | 0.00 | 0.00 | 0.00 | 56 | 1003.8 |
| 20260504003153 | 67 | 237 | 7.0 | 12.0 | 0.00 | 0.00 | 0.00 | 55 | 1003.9 |
| 20260504002642 | 67 | 259 | 5.0 | 11.0 | 0.00 | 0.00 | 0.00 | 54 | 1003.9 |
| 20260504002151 | 67 | 221 | 6.0 | 11.0 | 0.00 | 0.00 | 0.00 | 54 | 1003.9 |
| 20260504001643 | 68 | 232 | 4.0 | 11.0 | 0.00 | 0.00 | 0.00 | 54 | 1003.7 |
| 20260504001153 | 68 | 273 | 6.0 | 10.0 | 0.00 | 0.00 | 0.00 | 54 | 1003.7 |
| 20260504000702 | 68 | 225 | 5.0 | 10.0 | 0.00 | 0.00 | 0.00 | 54 | 1003.7 |
| 20260504000153 | 68 | 242 | 5.0 | 13.0 | 0.00 | 0.00 | 0.00 | 53 | 1003.7 |
| 20260503235645 | 68 | 187 | 6.0 | 13.0 | 0.00 | 0.00 | 0.00 | 53 | 1003.7 |
| 20260503235214 | 68 | 221 | 5.0 | 13.0 | 0.00 | 0.00 | 0.00 | 54 | 1003.7 |
| 20260503234642 | 68 | 247 | 8.0 | 13.0 | 0.00 | 0.00 | 0.00 | 53 | 1003.8 |
| 20260503234152 | 68 | 260 | 4.0 | 12.0 | 0.00 | 0.00 | 0.00 | 54 | 1003.8 |
| 20260503233644 | 68 | 233 | 6.0 | 14.0 | 0.00 | 0.00 | 0.00 | 54 | 1003.8 |
| 20260503233137 | 68 | 236 | 4.0 | 14.0 | 0.00 | 0.00 | 0.00 | 55 | 1004.1 |
| 20260503232705 | 67 | 246 | 3.0 | 9.0 | 0.00 | 0.00 | 0.00 | 56 | 1004.1 |
| 20260503232157 | 67 | 243 | 6.0 | 9.0 | 0.00 | 0.00 | 0.00 | 55 | 1004.1 |
| 20260503231644 | 67 | 211 | 4.0 | 9.0 | 0.00 | 0.00 | 0.00 | 55 | 1004.1 |
| 20260503231154 | 67 | 245 | 4.0 | 7.0 | 0.00 | 0.00 | 0.00 | 55 | 1004.1 |
| 20260503230645 | 67 | 228 | 5.0 | 9.0 | 0.00 | 0.00 | 0.00 | 54 | 1004.1 |
| 20260503230137 | 67 | 254 | 4.0 | 12.0 | 0.00 | 0.00 | 0.00 | 54 | 1004.2 |
| 20260503225654 | 67 | 246 | 7.0 | 12.0 | 0.00 | 0.00 | 0.00 | 54 | 1004.2 |
| 20260503225204 | 67 | 219 | 6.0 | 11.0 | 0.00 | 0.00 | 0.00 | 53 | 1004.2 |
| 20260503224651 | 67 | 224 | 8.0 | 11.0 | 0.00 | 0.00 | 0.00 | 54 | 1004.2 |
| 20260503224142 | 67 | 240 | 6.0 | 11.0 | 0.00 | 0.00 | 0.00 | 53 | 1004.2 |
| 20260503223648 | 67 | 238 | 5.0 | 11.0 | 0.00 | 0.00 | 0.00 | 53 | 1004.2 |
| 20260503223137 | 67 | 200 | 6.0 | 11.0 | 0.00 | 0.00 | 0.00 | 52 | 1004.2 |
| 20260503222647 | 67 | 267 | 6.0 | 12.0 | 0.00 | 0.00 | 0.00 | 52 | 1004.2 |
| 20260503222144 | 67 | 234 | 5.0 | 14.0 | 0.00 | 0.00 | 0.00 | 52 | 1004.2 |
| 20260503221655 | 67 | 235 | 9.0 | 15.0 | 0.00 | 0.00 | 0.00 | 51 | 1004.5 |
| 20260503221204 | 67 | 250 | 10.0 | 15.0 | 0.00 | 0.00 | 0.00 | 51 | 1004.5 |
| 20260503220652 | 67 | 225 | 5.0 | 16.0 | 0.00 | 0.00 | 0.00 | 51 | 1004.5 |
| 20260503220142 | 67 | 221 | 7.0 | 17.0 | 0.00 | 0.00 | 0.00 | 51 | 1004.6 |
| 20260503215710 | 67 | 242 | 6.0 | 19.0 | 0.00 | 0.00 | 0.00 | 50 | 1004.6 |
| 20260503215142 | 68 | 294 | 9.0 | 19.0 | 0.00 | 0.00 | 0.00 | 49 | 1004.6 |
| 20260503214654 | 68 | 239 | 7.0 | 16.0 | 0.00 | 0.00 | 0.00 | 51 | 1004.6 |
| 20260503214147 | 67 | 254 | 7.0 | 17.0 | 0.00 | 0.00 | 0.00 | 50 | 1004.6 |
| 20260503213640 | 67 | 249 | 9.0 | 21.0 | 0.00 | 0.00 | 0.00 | 49 | 1004.6 |
| 20260503213149 | 67 | 232 | 11.0 | 21.0 | 0.00 | 0.00 | 0.00 | 49 | 1004.7 |
| 20260503212637 | 68 | 240 | 14.0 | 20.0 | 0.00 | 0.00 | 0.00 | 48 | 1004.7 |
| 20260503212146 | 67 | 225 | 11.0 | 20.0 | 0.00 | 0.00 | 0.00 | 48 | 1004.7 |
| 20260503211637 | 67 | 292 | 11.0 | 20.0 | 0.00 | 0.00 | 0.00 | 48 | 1004.7 |
| 20260503211145 | 67 | 221 | 11.0 | 21.0 | 0.00 | 0.00 | 0.00 | 49 | 1004.7 |
| 20260503210639 | 67 | 240 | 13.0 | 21.0 | 0.00 | 0.00 | 0.00 | 49 | 1004.7 |
| 20260503210148 | 67 | 255 | 11.0 | 24.0 | 0.00 | 0.00 | 0.00 | 48 | 1004.8 |
| 20260503205636 | 67 | 223 | 19.0 | 24.0 | 0.00 | 0.00 | 0.00 | 47 | 1004.8 |
| 20260503205148 | 67 | 226 | 13.0 | 25.0 | 0.00 | 0.00 | 0.00 | 48 | 1004.8 |
| 20260503204639 | 67 | 236 | 16.0 | 25.0 | 0.00 | 0.00 | 0.00 | 47 | 1005.0 |
| 20260503204147 | 67 | 259 | 9.0 | 18.0 | 0.00 | 0.00 | 0.00 | 48 | 1005.0 |
| 20260503203637 | 66 | 239 | 10.0 | 21.0 | 0.00 | 0.00 | 0.00 | 49 | 1004.9 |
| 20260503203146 | 66 | 186 | 13.0 | 20.0 | 0.00 | 0.00 | 0.00 | 47 | 1005.2 |
| 20260503202700 | 66 | 264 | 11.0 | 23.0 | 0.00 | 0.00 | 0.00 | 48 | 1005.2 |
| 20260503202149 | 66 | 264 | 13.0 | 23.0 | 0.00 | 0.00 | 0.00 | 47 | 1005.2 |
| 20260503201636 | 66 | 239 | 10.0 | 23.0 | 0.00 | 0.00 | 0.00 | 47 | 1005.2 |
| 20260503201151 | 66 | 341 | 8.0 | 22.0 | 0.00 | 0.00 | 0.00 | 47 | 1005.2 |
| 20260503200638 | 67 | 250 | 11.0 | 21.0 | 0.00 | 0.00 | 0.00 | 46 | 1005.3 |
| 20260503200148 | 67 | 274 | 14.0 | 20.0 | 0.00 | 0.00 | 0.00 | 47 | 1005.3 |
| 20260503195637 | 66 | 240 | 12.0 | 22.0 | 0.00 | 0.00 | 0.00 | 46 | 1005.2 |
| 20260503195147 | 67 | 219 | 9.0 | 27.0 | 0.00 | 0.00 | 0.00 | 46 | 1005.3 |
| 20260503194638 | 67 | 244 | 14.0 | 27.0 | 0.00 | 0.00 | 0.00 | 45 | 1005.8 |
| 20260503194149 | 67 | 227 | 18.0 | 25.0 | 0.00 | 0.00 | 0.00 | 45 | 1005.8 |
| 20260503193639 | 68 | 219 | 17.0 | 28.0 | 0.00 | 0.00 | 0.00 | 45 | 1005.8 |
| 20260503193152 | 68 | 240 | 15.0 | 28.0 | 0.00 | 0.00 | 0.00 | 47 | 1005.9 |
| 20260503192645 | 67 | 232 | 17.0 | 28.0 | 0.00 | 0.00 | 0.00 | 45 | 1005.9 |
| 20260503192133 | 67 | 206 | 14.0 | 28.0 | 0.00 | 0.00 | 0.00 | 45 | 1005.9 |
| 20260503191640 | 67 | 225 | 16.0 | 27.0 | 0.00 | 0.00 | 0.00 | 45 | 1005.7 |
| 20260503191151 | 66 | 220 | 12.0 | 24.0 | 0.00 | 0.00 | 0.00 | 45 | 1005.7 |
| 20260503190643 | 67 | 213 | 14.0 | 29.0 | 0.00 | 0.00 | 0.00 | 45 | 1005.7 |
| 20260503190152 | 67 | 196 | 15.0 | 29.0 | 0.00 | 0.00 | 0.00 | 45 | 1005.8 |
| 20260503185705 | 67 | 209 | 17.0 | 28.0 | 0.00 | 0.00 | 0.00 | 44 | 1005.8 |
| 20260503185138 | 67 | 238 | 10.0 | 24.0 | 0.00 | 0.00 | 0.00 | 47 | 1005.8 |
| 20260503184708 | 67 | 178 | 14.0 | 24.0 | 0.00 | 0.00 | 0.00 | 45 | 1006.3 |
| 20260503184142 | 67 | 210 | 10.0 | 26.0 | 0.00 | 0.00 | 0.00 | 47 | 1006.3 |
| 20260503183652 | 66 | 211 | 20.0 | 26.0 | 0.00 | 0.00 | 0.00 | 44 | 1006.3 |
| 20260503183142 | 66 | 209 | 13.0 | 27.0 | 0.00 | 0.00 | 0.00 | 45 | 1006.4 |
| 20260503182708 | 65 | 216 | 16.0 | 27.0 | 0.00 | 0.00 | 0.00 | 44 | 1006.4 |
| 20260503182135 | 65 | 205 | 16.0 | 29.0 | 0.00 | 0.00 | 0.00 | 45 | 1006.4 |
| 20260503181647 | 64 | 214 | 19.0 | 29.0 | 0.00 | 0.00 | 0.00 | 45 | 1006.7 |
| 20260503181137 | 65 | 242 | 18.0 | 28.0 | 0.00 | 0.00 | 0.00 | 47 | 1006.8 |
| 20260503180647 | 64 | 169 | 17.0 | 28.0 | 0.00 | 0.00 | 0.00 | 48 | 1006.7 |
| 20260503180139 | 64 | 214 | 19.0 | 25.0 | 0.00 | 0.00 | 0.00 | 48 | 1007.0 |
| 20260503175649 | 64 | 196 | 16.0 | 28.0 | 0.00 | 0.00 | 0.00 | 50 | 1007.0 |
| 20260503175142 | 63 | 191 | 15.0 | 28.0 | 0.00 | 0.00 | 0.00 | 49 | 1007.0 |
| 20260503174651 | 64 | 175 | 13.0 | 24.0 | 0.00 | 0.00 | 0.00 | 51 | 1007.5 |
| 20260503174141 | 63 | 227 | 15.0 | 23.0 | 0.00 | 0.00 | 0.00 | 49 | 1007.5 |
| 20260503173646 | 63 | 183 | 14.0 | 26.0 | 0.00 | 0.00 | 0.00 | 51 | 1007.5 |
| 20260503173136 | 62 | 203 | 13.0 | 26.0 | 0.00 | 0.00 | 0.00 | 52 | 1008.4 |
| 20260503172645 | 61 | 202 | 11.0 | 26.0 | 0.00 | 0.00 | 0.00 | 52 | 1008.4 |
| 20260503172156 | 61 | 191 | 13.0 | 26.0 | 0.00 | 0.00 | 0.00 | 52 | 1008.4 |
| 20260503171645 | 61 | 202 | 16.0 | 25.0 | 0.00 | 0.00 | 0.00 | 52 | 1008.5 |
| 20260503171137 | 61 | 217 | 14.0 | 22.0 | 0.00 | 0.00 | 0.00 | 52 | 1008.5 |
| 20260503170645 | 61 | 200 | 11.0 | 21.0 | 0.00 | 0.00 | 0.00 | 52 | 1008.5 |
| 20260503170159 | 61 | 180 | 10.0 | 20.0 | 0.00 | 0.00 | 0.00 | 54 | 1009.2 |
| 20260503160150 | 58 | 201 | 11.0 | 17.0 | 0.00 | 0.00 | 0.00 | 57 | 1010.0 |
| 20260503150708 | 57 | 190 | 5.0 | 16.0 | 0.00 | 0.00 | 0.00 | 60 | 1010.7 |
| 20260503150155 | 57 | 243 | 7.0 | 15.0 | 0.00 | 0.00 | 0.00 | 60 | 1011.1 |
| 20260503140150 | 52 | 178 | 5.0 | 10.0 | 0.00 | 0.00 | 0.00 | 69 | 1011.7 |
| 20260503131152 | 49 | 201 | 3.0 | 7.0 | 0.00 | 0.00 | 0.00 | 74 | 1012.3 |
| 20260503130639 | 48 | 192 | 5.0 | 11.0 | 0.00 | 0.00 | 0.00 | 75 | 1012.3 |
| 20260503130145 | 48 | 209 | 6.0 | 11.0 | 0.00 | 0.00 | 0.00 | 74 | 1012.3 |
| 20260503120141 | 45 | 218 | 5.0 | 10.0 | 0.00 | 0.00 | 0.00 | 77 | 1012.3 |
| 20260503110644 | 44 | 207 | 3.0 | 7.0 | 0.00 | 0.00 | 0.00 | 76 | 1012.0 |
| 20260503110134 | 44 | 219 | 4.0 | 10.0 | 0.00 | 0.00 | 0.00 | 76 | 1012.0 |
| 20260503100143 | 45 | 227 | 5.0 | 8.0 | 0.00 | 0.00 | 0.00 | 73 | 1012.4 |
| 20260503090159 | 45 | 211 | 4.0 | 9.0 | 0.00 | 0.00 | 0.00 | 71 | 1012.6 |
| 20260503081142 | 44 | 207 | 4.0 | 6.0 | 0.00 | 0.00 | 0.00 | 71 | 1012.8 |
| 20260503080651 | 44 | 220 | 4.0 | 6.0 | 0.00 | 0.00 | 0.00 | 71 | 1012.8 |
| 20260503080139 | 44 | 228 | 3.0 | 6.0 | 0.00 | 0.00 | 0.00 | 71 | 1012.7 |
| 20260503072714 | 44 | 215 | 4.0 | 7.0 | 0.00 | 0.00 | 0.00 | 69 | 1012.9 |
| 20260503072146 | 44 | 227 | 3.0 | 6.0 | 0.00 | 0.00 | 0.00 | 69 | 1012.9 |
| 20260503071654 | 44 | 205 | 4.0 | 6.0 | 0.00 | 0.00 | 0.00 | 69 | 1012.9 |
| 20260503071206 | 45 | 202 | 3.0 | 6.0 | 0.00 | 0.00 | 0.00 | 69 | 1012.9 |
| 20260503070656 | 45 | 198 | 4.0 | 6.0 | 0.00 | 0.00 | 0.00 | 68 | 1012.9 |
| 20260503070143 | 45 | 218 | 3.0 | 6.0 | 0.00 | 0.00 | 0.00 | 68 | 1012.9 |